Regional Weather Roundup
Issued by NWS

Home | Current Version | Previous Version | Graphics & Text | Print | Product List | Glossary On
Versions: 1 2 3 4 5 6 7 8 9 10 11 12 13 14 15 16 17 18 19 20 21 22 23 24 25 26 27 28 29 30 31 32 33 34 35 36 37 38 39 40 41 42 43 44 45 46 47 48 49 50
000
ASUS43 KLOT 230706
RWRIL

ILLINOIS REGIONAL WEATHER ROUNDUP
NATIONAL WEATHER SERVICE CHICAGO/ROMEOVILLE IL
200 AM CDT SAT AUG 23 2014

NOTE: "FAIR" INDICATES FEW OR NO CLOUDS BELOW 12,000 FEET WITH NO
SIGNIFICANT WEATHER AND/OR OBSTRUCTIONS TO VISIBILITY.

* THESE STATIONS ARE NOT UNDER NWS QUALITY CONTROL. THEY ALSO MAY NOT
  REPORT WEATHER SUCH AS PRECIPITATION OR FOG.

ILZ001-002-007-009-015-016-024-230800-
NORTHWEST ILLINOIS

CITY           SKY/WX    TMP DP  RH WIND       PRES   REMARKS
MOLINE         CLOUDY    75  73  93 CALM      29.94R
STERLING*      MOCLDY    73  72  94 E3        29.96S
SAVANNA*       MOCLDY    75  73  92 CALM      29.95S FOG
$$

ILZ003-004-008-010-011-017-018-230800-
NORTH CENTRAL ILLINOIS

CITY           SKY/WX    TMP DP  RH WIND       PRES   REMARKS
ROCKFORD       CLOUDY    75  72  90 SE3       29.98S
FREEPORT*      CLOUDY    73  72  96 CALM      30.00R FOG
ROCHELLE*      MOCLDY    74  72  95 CALM      29.98S FOG
DE KALB*       MOCLDY    72  70  96 CALM      29.99S FOG
PERU*          PTCLDY    75  73  92 SE3       29.97S
$$

ILZ005-006-012>014-019>023-230800-
NORTHEAST ILLINOIS

CITY           SKY/WX    TMP DP  RH WIND       PRES   REMARKS
CHICAGO-OHARE  CLOUDY    76  70  82 N5        29.97R
CHICAGO-MIDWAY MOCLDY    79  74  84 CALM      29.96S HX  82
AURORA         CLOUDY    74  71  91 NE3       29.97F FOG
LANSING*       PTCLDY    71  71  98 CALM      29.97S FOG
JOLIET*        MOCLDY    74  72  93 CALM      29.97S FOG
WAUKEGAN       FOG       71  70  96 NE6       29.97F VSB 1/2
DUPAGE AIRPORT MOCLDY    74  72  93 CALM      29.97F FOG
KANKAKEE*      CLEAR     70  69  99 CALM      29.98R FOG
WHEELING       CLOUDY    75  72  90 CALM      29.99S FOG
MORRIS*        MOCLDY    73  73 100 CALM      29.96F FOG
ROMEOVILLE*    MOCLDY    71  71 100 CALM      29.97S FOG
NORTHERLY ISL    N/A     73  71  93 MISG        N/A
$$

LMZ740>746-230800-
SOUTHERN LAKE MICHIGAN

STATION/POSITION SKY/WX   TEMP    WIND        PRES    VSBY  WAVE
                          AIR SEA DIR/SP/G                  HT/PER
                          (F)     (DEG/KT/KT) (MB)    (MI)  (FT/S)
SOUTHERN BUOY              70 69   60/  8/ 10 1015.1F         0
WAUKEGAN HARBOR            71      50/  6/  7   N/A
HARRISON CRIB              73      90/  6/  8   N/A
BURNHAM HARBOR             73     340/  1/  3   N/A
CALUMET HARBOR             74      CALM  /  3 1013.5F
MICHIGAN CITY              75     160/  3/  5   N/A
MICHIGAN CITY 6N           74 74  190/  4/  4   N/A           0
ST. JOSEPH                 74 73   90/  4/  6   N/A           0
$$

ILZ025>027-034>036-040-047-049-050-058-095>099-230800-
WEST-CENTRAL ILLINOIS

CITY           SKY/WX    TMP DP  RH WIND       PRES   REMARKS
QUINCY         PTCLDY    77  75  93 SE5       29.93F
GALESBURG*     CLEAR     75  73  94 E3        29.94S
MACOMB*        CLEAR     75  74  99 SE6       29.95F FOG
JACKSONVILLE*  CLEAR     78  76  95 SE3       29.95S FOG     HX  81
PITTSFIELD*    PTCLDY    78  75  90 SE3       29.95F HX  80
$$

ILZ028>032-037-038-041>044-048-051>054-059>061-230800-
CENTRAL ILLINOIS

CITY           SKY/WX    TMP DP  RH WIND       PRES   REMARKS
PONTIAC        CLEAR     72  72 100 CALM      29.97S FOG
DECATUR        PTCLDY    75  73  93 CALM      29.97S
PEORIA         CLEAR     78  73  84 SE6       29.95F HX  81
LACON*         PTCLDY    73  71  94 SE3       29.95S
LINCOLN*       MOCLDY    76  74  93 CALM      29.93S FOG
SPRINGFIELD    MOCLDY    79  76  90 S3        29.94F HX  83
TAYLORVILLE    PTCLDY    77  75  94 SE7       29.95F FOG
$$

ILZ033-039-045-046-055>057-062-063-230800-
EAST-CENTRAL ILLINOIS

CITY           SKY/WX    TMP DP  RH WIND       PRES   REMARKS
CHAMPAIGN      MOCLDY    73  72  96 E3        29.98S
DANVILLE*      HVY RAIN  69  69 100 CALM      29.95S
RANTOUL*       PTCLDY    74  70  88 CALM      29.99S
MATTOON        CLEAR     77  75  93 S6        29.96F FOG
PARIS*         FOG       72  72 100 CALM      29.98S VSB 3/4
$$

ILZ079-100>102-230800-
SOUTHWEST ILLINOIS

CITY           SKY/WX    TMP DP  RH WIND       PRES   REMARKS
ALTON          PTCLDY    77  77 100 E3        29.94F FOG
BELLEVILLE     FOG       77  77 100 CALM      29.93S VSB 1
CAHOKIA*       PTCLDY    78  76  93 CALM      29.93S HX  81
SPARTA*        PTCLDY    80  76  89 S6        29.95S HX  84
$$

ILZ064>066-069>071-074>076-080>082-084>086-088>090-092>094-230800-
SOUTH-CENTRAL ILLINOIS

CITY           SKY/WX    TMP DP  RH WIND       PRES   REMARKS
CARBONDALE     PTCLDY    79  75  87 S5        29.95S HX  83
CAIRO*         PTCLDY    81  75  80 S5        29.96S HX  87
MARION         MOCLDY    81  77  89 S5        29.96S HX  88
MT. VERNON     CLEAR     77  72  83 E3        29.96F
CENTRALIA*     PTCLDY    77  74  91 E5        29.96R FOG
SALEM*         CLEAR     80  78  94 E3        29.97R FOG     HX  88
METROPOLIS*    CLEAR     80  73  79 SW3       29.96F HX  84
$$

ILZ067-068-072-073-078-083-087-091-230800-
SOUTHEAST ILLINOIS

CITY           SKY/WX    TMP DP  RH WIND       PRES   REMARKS
LAWRENCEVILLE  PTCLDY    76  75  97 SE5       29.97F FOG
FLORA*         PTCLDY    77  75  96 SE3       29.97S FOG
FAIRFIELD*     PTCLDY    79  79 100 CALM      29.96F FOG     HX  83
HARRISBURG*    CLEAR     76  76 100 E3        29.97S
ROBINSON*      MOCLDY    77  76  98 S6        29.98R FOG
CARMI*         CLEAR     79  77  94 SE5       29.97S HX  83
$$

ABBREVIATIONS USED IN REMARKS
   TC - TEMPERATURE IN CELSIUS
  WCI - WIND CHILL INDEX
   HX - HEAT INDEX
  VSB - VISIBILITY
$$




USA.gov is the U.S. government's official web portal to all federal, state and local government web resources and services.